User: anonymous   Login
Location: Bonny Doon Airfield
(37.0704°N, 122.1252°W)
Time: 17:15:52
(UTC-08:00)
Language:

nSIGHT-1 - Orbit

View from above orbital plane
View from above orbital plane
View from above satellite
View from above satellite

Ground track
Ground track

The orbit data is extracted from the following two-line orbital elements,

1 42726U 98067MF  18052.53751673  .00006374  00000-0  84983-4 0  9990
2 42726  51.6382 229.4429 0005980 158.4224 201.7022 15.59535742 42341
Epoch (UTC): 21 February 2018 12:54:01
Eccentricity: 0.0005980
inclination: 51.6382°
perigee height: 385 km
apogee height: 393 km
right ascension of ascending node: 229.4429°
argument of perigee: 158.4224°
revolutions per day: 15.59535742
mean anomaly at epoch: 201.7022°
orbit number at epoch: 4234

The dashed part of the orbit path shows where the satellite is in the earth's shadow,  

DLR